星链-2697 (STARLINK-2697 )

导读 | 星芒AI

STARLINK-2697 是 SpaceX Starlink 卫星互联网项目中的第 2697 颗卫星,属于低轨卫星群的一部分。该卫星于 2024 年发射,旨在增强全球互联网覆盖,特别是偏远地区的网络连接。它运行在约 550 公里的轨道高度,配备先进通信设备,支持高速、低延迟的互联网服务。Starlink 项目致力于构建全球卫星互联网网络,推动数字包容性发展。

基本信息
目录编号:
48474
目录名称:
STARLINK-2697
国际标识:
2021-040AY
轨道中心:
EARTH
卫星名称:
星链-2697
卫星全名:
星链-2697 (STARLINK-2697 )
卫星状态:
在轨 (已飞行1635 天)
发射日期:
2021-05-09 UTC
国别 :
美国 (US)
星等 :
--
轨道信息
数据来源 国际轨道数据
星历时间: 2025-10-30T09:23:49+0800
14小时前
查看轨道信息
半长轴: 6925.357km
偏心率: 0.0001376
轨道倾角: 53.056°
近地点辐角 80.388°
升交点赤经 58.046°
平近点角 279.726°
近地点: 546.269km
远地点: 548.175km
周期: 95.592分钟
每日圈数: 15.063973
详细信息
固有亮度:
5
最大亮度:
2.5
卫星平台:
Starlink V1.0
覆盖范围:
全球
运营商:
太空探索技术公司
运营商所在国:
美国
制造商(研发单位):
太空探索技术公司
制造商所在国:
美国
使用方式:
暂无
卫星简介
星链(Starlink)计划是由太空探索技术公司(SpaceX)提出的一个巨型低轨卫星互联网星座项目,计划在2019年至2024年间在太空搭建由约1.2万颗卫星组成的“星链”网络,其中1584颗将部署在地球上空550千米处的近地轨道,并从2020年开始工作。该卫星仍在工作。
2D轨道图
3D轨道图
轨道高度分析图
轨道倾角分析图
轨道综合分析图
查看轨道综合分析图